[TLELIST] Archives

 

[TLELIST] Current TLEs

May 18th 2025 PDT

HST 1 20580U 90037B 25137.61839470 .00008126 00000-0 30797-3 0 9996 2 20580 28.4681 252.0748 0002898 106.8448 253.2464 15.25008337728010 ISS (ZARYA) 1 25544U 98067A 25138.15257033 .00009587 00000-0 17829-3 0 9994 2 25544 51.6355 95.8664 0002230 121.5652 238.5554 15.49586893510505 CXO 1 25867U 99040B 25140.34524790 .00000758 00000-0 00000-0 0 9996 2 25867 48.8715 131.0899 8466009 309.0086 0.0284 0.37801937 15832 ...Continue Reading

[TLELIST] Current TLEs

May 18th 2025 PDT

HST 1 20580U 90037B 25137.61839470 .00008126 00000-0 30797-3 0 9996 2 20580 28.4681 252.0748 0002898 106.8448 253.2464 15.25008337728010 ISS (ZARYA) 1 25544U 98067A 25138.15257033 .00009587 00000-0 17829-3 0 9994 2 25544 51.6355 95.8664 0002230 121.5652 238.5554 15.49586893510505 CXO 1 25867U 99040B 25140.34524790 .00000758 00000-0 00000-0 0 9996 2 25867 48.8715 131.0899 8466009 309.0086 0.0284 0.37801937 15832 ...Continue Reading

[TLELIST] Current TLEs

May 17th 2025 PDT

HST 1 20580U 90037B 25136.57131820 .00006233 00000-0 23447-3 0 9995 2 20580 28.4682 259.1685 0002931 96.5554 263.5374 15.24991329727856 ISS (ZARYA) 1 25544U 98067A 25137.18520377 .00009236 00000-0 17217-3 0 9992 2 25544 51.6353 100.6559 0002290 118.5372 241.5847 15.49569303510351 CXO 1 25867U 99040B 25137.70059221 .00000763 00000-0 00000-0 0 9990 2 25867 48.8168 131.2054 8469154 308.9956 359.9300 0.37800888 15825 ...Continue Reading

[TLELIST] Current TLEs

May 17th 2025 PDT

HST 1 20580U 90037B 25136.57131820 .00006233 00000-0 23447-3 0 9995 2 20580 28.4682 259.1685 0002931 96.5554 263.5374 15.24991329727856 ISS (ZARYA) 1 25544U 98067A 25137.18520377 .00009236 00000-0 17217-3 0 9992 2 25544 51.6353 100.6559 0002290 118.5372 241.5847 15.49569303510351 CXO 1 25867U 99040B 25137.70059221 .00000763 00000-0 00000-0 0 9990 2 25867 48.8168 131.2054 8469154 308.9956 359.9300 0.37800888 15825 ...Continue Reading

[TLELIST] Current TLEs

May 16th 2025 PDT

HST 1 20580U 90037B 25135.58967485 .00006512 00000-0 24540-3 0 9994 2 20580 28.4683 265.8189 0002920 87.0937 272.9991 15.24979657727701 ISS (ZARYA) 1 25544U 98067A 25136.37055786 .00008281 00000-0 15529-3 0 9992 2 25544 51.6360 104.6843 0002566 114.2967 18.3939 15.49556806510220 CXO 1 25867U 99040B 25137.70059221 .00000763 00000-0 00000-0 0 9990 2 25867 48.8168 131.2054 8469154 308.9956 359.9300 0.37800888 15825 ...Continue Reading

[TLELIST] Current TLEs

May 15th 2025 PDT

HST 1 20580U 90037B 25134.73891115 .00006617 00000-0 24958-3 0 9995 2 20580 28.4685 271.5829 0002903 78.7476 281.3445 15.24968911727578 ISS (ZARYA) 1 25544U 98067A 25135.34190934 .00008105 00000-0 15227-3 0 9993 2 25544 51.6360 109.7771 0002557 112.3430 38.3717 15.49538266510068 CXO 1 25867U 99040B 25137.70059221 .00000763 00000-0 00000-0 0 9990 2 25867 48.8168 131.2054 8469154 308.9956 359.9300 0.37800888 15825 ...Continue Reading

[TLELIST] Current TLEs

May 14th 2025 PDT

HST 1 20580U 90037B 25134.08447312 .00006524 00000-0 24601-3 0 9991 2 20580 28.4685 276.0162 0002890 72.6806 287.4104 15.24960776727731 ISS (ZARYA) 1 25544U 98067A 25134.15405506 .00008594 00000-0 16106-3 0 9994 2 25544 51.6345 115.6637 0002291 108.2504 251.8734 15.49518201509885 CXO 1 25867U 99040B 25135.05626942 .00000692 00000-0 00000+0 0 9996 2 25867 48.7613 131.3158 8472963 308.9766 359.8810 0.37804079 26975 ...Continue Reading

[TLELIST] Current TLEs

May 14th 2025 PDT

HST 1 20580U 90037B 25134.08447312 .00006524 00000-0 24601-3 0 9991 2 20580 28.4685 276.0162 0002890 72.6806 287.4104 15.24960776727731 ISS (ZARYA) 1 25544U 98067A 25134.15405506 .00008594 00000-0 16106-3 0 9994 2 25544 51.6345 115.6637 0002291 108.2504 251.8734 15.49518201509885 CXO 1 25867U 99040B 25135.05626942 .00000692 00000-0 00000+0 0 9996 2 25867 48.7613 131.3158 8472963 308.9766 359.8810 0.37804079 26975 ...Continue Reading

[TLELIST] Current TLEs

May 13th 2025 PDT

HST 1 20580U 90037B 25132.71014172 .00006873 00000-0 25974-3 0 9994 2 20580 28.4684 285.3269 0002843 59.3499 300.7376 15.24943879727262 ISS (ZARYA) 1 25544U 98067A 25133.18664600 .00008383 00000-0 15740-3 0 9997 2 25544 51.6343 120.4533 0002335 105.7353 254.3893 15.49501655509738 CXO 1 25867U 99040B 25135.05626942 .00000692 00000-0 00000+0 0 9996 2 25867 48.7613 131.3158 8472963 308.9766 359.8810 0.37804079 26975 ...Continue Reading

[TLELIST] Current TLEs

May 12th 2025 PDT

HST 1 20580U 90037B 25131.79391198 .00006717 00000-0 25377-3 0 9991 2 20580 28.4682 291.5340 0002823 50.1461 309.9381 15.24931478727129 ISS (ZARYA) 1 25544U 98067A 25132.37369382 .00009778 00000-0 18229-3 0 9990 2 25544 51.6373 124.4732 0002524 108.2420 34.0962 15.49490177509601 CXO 1 25867U 99040B 25132.41211790 .00000614 00000-0 00000-0 0 9999 2 25867 48.7216 131.4145 8476609 308.9568 359.8615 0.37808717 15808 ...Continue Reading
  • This mailing list is a public mailing list - anyone may join or leave, at any time.
  • This mailing list is announce-only.

International Space Station (ISS) / Hubble Space Telescope (HST) / Chandra X-Ray Observatory Orbital Data via EMAIL

Privacy Policy:

Private list